Weather History for Winchester, TN

Change the Weather History Date:

Tuesday, March 18, 2014

  Actual Average (KTHA) Record (KTHA)
Temperature  
Mean Temperature 44 °F -  
Max Temperature 53 °F 62 °F 62 °F (2013)
Min Temperature 35 °F 40 °F 35 °F (2014)
Degree Days  
Heating Degree Days 21    
Moisture  
Dew Point 41 °F    
Average Humidity 86    
Maximum Humidity 100    
Minimum Humidity 67    
Precipitation  
Precipitation 0.00 in - - ()
Sea Level Pressure  
Sea Level Pressure 29.91 in    
Wind  
Wind Speed 5 mph (SSE)    
Max Wind Speed 18 mph    
Max Gust Speed -    
Visibility 9 miles    
Events      
Averages and records for this station are not official NWS values.
T = Trace of Precipitation, MM = Missing Value Source: NWS Daily Summary

Daily Weather History Graph

Daily Weather History Graph

Search for Another Location

Airport:

Trip Planner

Search our weather history database for the weather conditions in past years. The results will help you decide how hot, cold, wet, or windy it might be!

Date:

Astronomy

Mar. 18, 2014 Rise Set
Actual Time 7:50 AM EDT 7:54 PM EDT
Civil Twilight 7:25 AM EDT 8:19 PM EDT
Nautical Twilight 6:55 AM EDT 8:49 PM EDT
Astronomical Twilight 6:26 AM EDT 9:19 PM EDT
Moon 10:04 PM EDT (3/18) 8:44 AM EDT (3/18)
Length of Visible Light 12h 54m
Length of Day
12h 03m
Waning Gibbous, 96% of the Moon is Illuminated
Mar 18
Waning Gibbous
Mar 23
Last Quarter
Mar 30
New
Apr 7
First Quarter
Apr 15
Full

Hourly Weather History & Observations

Time (EDT) Temp. Windchill Dew Point Humidity Pressure Visibility Wind Dir Wind Speed Gust Speed Precip Events Conditions
12:15 AM 35.6 °F - 35.6 °F 100% 29.86 in 2.5 mi Calm Calm - N/A   Overcast
12:35 AM 35.6 °F - 35.6 °F 100% 29.86 in 2.0 mi Calm Calm - N/A   Overcast
12:55 AM 35.6 °F - 35.6 °F 100% 29.85 in 1.8 mi Calm Calm - N/A   Overcast
1:55 AM 35.6 °F - 35.6 °F 100% 29.85 in 2.5 mi Calm Calm - N/A   Overcast
2:15 AM 35.6 °F - 35.6 °F 100% 29.85 in 3.0 mi Calm Calm - N/A   Overcast
2:35 AM 37.4 °F - 35.6 °F 93% 29.85 in 4.0 mi Calm Calm - N/A   Overcast
2:55 AM 37.4 °F 34.9 °F 35.6 °F 93% 29.84 in 4.0 mi Variable 3.5 mph - N/A   Overcast
3:15 AM 37.4 °F 33.8 °F 35.6 °F 93% 29.84 in 4.0 mi NNE 4.6 mph - N/A   Overcast
3:35 AM 37.4 °F 32.8 °F 35.6 °F 93% 29.83 in 5.0 mi NNE 5.8 mph - N/A   Overcast
3:55 AM 37.4 °F 34.9 °F 35.6 °F 93% 29.83 in 6.0 mi North 3.5 mph - N/A   Overcast
4:15 AM 37.4 °F - 37.4 °F 100% 29.82 in 7.0 mi Calm Calm - N/A   Overcast
4:35 AM 37.4 °F - 37.4 °F 100% 29.81 in 7.0 mi Calm Calm - N/A   Overcast
4:55 AM 37.4 °F - 37.4 °F 100% 29.82 in 6.0 mi Calm Calm - N/A   Overcast
5:15 AM 37.4 °F - 37.4 °F 100% 29.81 in 6.0 mi Calm Calm - N/A   Overcast
5:35 AM 37.4 °F - 37.4 °F 100% 29.81 in 6.0 mi Calm Calm - N/A   Overcast
5:55 AM 39.2 °F - 37.4 °F 93% 29.81 in 6.0 mi Calm Calm - N/A   Overcast
6:15 AM 39.2 °F - 39.2 °F 100% 29.82 in 9.0 mi Calm Calm - N/A   Overcast
6:35 AM 39.2 °F - 39.2 °F 100% 29.83 in 9.0 mi Calm Calm - N/A   Overcast
6:55 AM 39.2 °F 37.0 °F 39.2 °F 100% 29.84 in 7.0 mi SSE 3.5 mph - N/A   Overcast
7:15 AM 39.2 °F 37.0 °F 39.2 °F 100% 29.84 in 8.0 mi SSE 3.5 mph - N/A   Overcast
7:35 AM 39.2 °F 35.9 °F 39.2 °F 100% 29.84 in 8.0 mi SSE 4.6 mph - N/A   Overcast
7:55 AM 41.0 °F 38.0 °F 39.2 °F 93% 29.86 in 10.0 mi SE 4.6 mph - N/A   Overcast
8:15 AM 42.8 °F 39.3 °F 41.0 °F 93% 29.87 in 10.0 mi SSE 5.8 mph - N/A   Overcast
8:35 AM 42.8 °F 40.1 °F 41.0 °F 93% 29.88 in 10.0 mi SE 4.6 mph - N/A   Overcast
8:55 AM 42.8 °F 40.1 °F 42.8 °F 100% 29.88 in 10.0 mi SE 4.6 mph - N/A   Overcast
9:15 AM 42.8 °F 38.6 °F 42.8 °F 100% 29.89 in 10.0 mi SE 6.9 mph - N/A   Overcast
9:35 AM 42.8 °F 40.1 °F 41.0 °F 93% 29.90 in 10.0 mi SSE 4.6 mph - N/A   Overcast
9:55 AM 44.6 °F 40.7 °F 42.8 °F 93% 29.92 in 10.0 mi SE 6.9 mph - N/A   Overcast
10:15 AM 44.6 °F 41.4 °F 42.8 °F 93% 29.93 in 10.0 mi SE 5.8 mph - N/A   Overcast
10:35 AM 44.6 °F 41.4 °F 42.8 °F 93% 29.94 in 10.0 mi ESE 5.8 mph - N/A   Overcast
10:55 AM 46.4 °F 45.2 °F 42.8 °F 87% 29.96 in 10.0 mi SSW 3.5 mph - N/A   Overcast
11:15 AM 46.4 °F 44.3 °F 42.8 °F 87% 29.96 in 10.0 mi South 4.6 mph - N/A   Overcast
11:35 AM 48.2 °F - 42.8 °F 82% 29.97 in 10.0 mi South 4.6 mph - N/A   Overcast
11:55 AM 48.2 °F - 42.8 °F 82% 29.98 in 10.0 mi South 4.6 mph - N/A   Overcast
12:15 PM 48.2 °F - 42.8 °F 82% 29.99 in 10.0 mi South 3.5 mph - N/A   Overcast
12:35 PM 48.2 °F - 42.8 °F 82% 29.99 in 10.0 mi SSW 3.5 mph - N/A   Overcast
12:55 PM 50.0 °F - 44.6 °F 82% 29.99 in 10.0 mi South 6.9 mph - N/A   Overcast
1:15 PM 48.2 °F - 44.6 °F 87% 29.99 in 10.0 mi South 6.9 mph - N/A   Overcast
1:35 PM 48.2 °F - 44.6 °F 87% 29.99 in 10.0 mi South 6.9 mph - N/A   Overcast
1:55 PM 48.2 °F - 44.6 °F 87% 29.99 in 10.0 mi South 6.9 mph - N/A   Overcast
2:15 PM 48.2 °F - 42.8 °F 82% 29.99 in 10.0 mi SSE 10.4 mph - N/A   Overcast
2:35 PM 50.0 °F - 42.8 °F 76% 29.97 in 10.0 mi SSE 12.7 mph - N/A   Overcast
2:55 PM 51.8 °F - 42.8 °F 71% 29.97 in 10.0 mi South 15.0 mph - N/A   Overcast
3:15 PM 51.8 °F - 42.8 °F 71% 29.96 in 10.0 mi SSE 15.0 mph - N/A   Overcast
3:35 PM 51.8 °F - 42.8 °F 71% 29.95 in 10.0 mi SE 13.8 mph - N/A   Overcast
3:55 PM 51.8 °F - 42.8 °F 71% 29.94 in 10.0 mi SE 10.4 mph - N/A   Overcast
4:15 PM 51.8 °F - 42.8 °F 71% 29.93 in 10.0 mi SSE 16.1 mph - N/A   Overcast
4:35 PM 53.6 °F - 44.6 °F 72% 29.93 in 10.0 mi South 12.7 mph - N/A   Overcast
4:55 PM 53.6 °F - 42.8 °F 67% 29.93 in 10.0 mi South 12.7 mph - N/A   Overcast
5:15 PM 53.6 °F - 42.8 °F 67% 29.92 in 10.0 mi SSE 15.0 mph - N/A   Overcast
5:35 PM 53.6 °F - 42.8 °F 67% 29.92 in 10.0 mi South 8.1 mph - N/A   Overcast
5:55 PM 53.6 °F - 42.8 °F 67% 29.92 in 10.0 mi South 8.1 mph - N/A   Overcast
6:15 PM 53.6 °F - 42.8 °F 67% 29.92 in 10.0 mi South 8.1 mph - N/A   Overcast
6:35 PM 51.8 °F - 42.8 °F 71% 29.91 in 10.0 mi SSE 12.7 mph - N/A   Overcast
6:55 PM 51.8 °F - 42.8 °F 71% 29.91 in 10.0 mi SSE 16.1 mph - N/A   Mostly Cloudy
7:15 PM 51.8 °F - 42.8 °F 71% 29.90 in 10.0 mi SSE 18.4 mph - N/A   Mostly Cloudy
7:35 PM 50.0 °F - 42.8 °F 76% 29.90 in 10.0 mi SSE 13.8 mph - N/A   Mostly Cloudy
7:55 PM 48.2 °F - 42.8 °F 82% 29.90 in 10.0 mi SSE 18.4 mph - N/A   Mostly Cloudy
8:15 PM 48.2 °F - 42.8 °F 82% 29.91 in 10.0 mi SSE 11.5 mph - N/A   Overcast
8:35 PM 48.2 °F - 42.8 °F 82% 29.91 in 10.0 mi SSE 11.5 mph - N/A   Overcast
8:55 PM 48.2 °F - 42.8 °F 82% 29.92 in 10.0 mi South 10.4 mph - N/A   Overcast
9:15 PM 48.2 °F - 42.8 °F 82% 29.93 in 10.0 mi SSE 16.1 mph - N/A   Overcast
9:35 PM 48.2 °F - 42.8 °F 82% 29.94 in 10.0 mi South 13.8 mph - N/A   Overcast
9:55 PM 48.2 °F - 42.8 °F 82% 29.95 in 10.0 mi South 16.1 mph - N/A   Overcast
10:15 PM 48.2 °F - 42.8 °F 82% 29.97 in 10.0 mi SSE 13.8 mph - N/A   Overcast
10:35 PM 48.2 °F - 42.8 °F 82% 29.98 in 10.0 mi SSE 8.1 mph - N/A   Overcast
10:55 PM 48.2 °F - 42.8 °F 82% 29.99 in 10.0 mi South 10.4 mph - N/A   Overcast
11:15 PM 48.2 °F - 42.8 °F 82% 29.99 in 10.0 mi South 11.5 mph - N/A   Overcast
11:35 PM 48.2 °F - 42.8 °F 82% 29.99 in 10.0 mi South 12.7 mph - N/A   Overcast
11:55 PM 50.0 °F - 42.8 °F 76% 30.00 in 10.0 mi South 10.4 mph - N/A   Overcast